Location: ??????????
(48.4699°N, 37.9573°E)
Time: 19:41:43
(UTC+00:00)

NOSS 3-1 (C) - Pass Details

Date: 20 January 2021
Orbit: 723 x 1485 km, 63.3° (Epoch: 02 March)

Event Time Altitude Azimuth Distance (km) Brightness Sun altitude
Rises 17:35:51 0° 317° (NW) 3,942 7.3 -34.0°
Reaches altitude 10° 17:38:24 10° 313° (NW) 3,083 6.7 -34.4°
Maximum altitude 17:45:46 58° 237° (WSW) 1,508 4.5 -35.6°
Enters shadow 17:47:17 51° 200° (SSW) 1,637 4.5 -35.8°
